Regional Weather Roundup
Issued by NWS

Home | Current Version | Previous Version | Text Only | Print | Product List | Glossary On
Versions: 1 2 3 4 5 6 7 8 9 10 11 12 13 14 15 16 17 18 19 20 21 22 23 24 25 26 27 28 29 30 31 32 33 34 35 36 37 38 39 40 41 42 43 44 45 46 47 48 49 50
000
ASUS45 KBOI 241610
RWRID

IDAHO REGIONAL WEATHER ROUNDUP
NATIONAL WEATHER SERVICE BOISE ID
1000 AM MDT SUN MAY 24 2015

NOTE: "FAIR" INDICATES FEW OR NO CLOUDS BELOW 12000 FEET
WITH NO SIGNIFICANT WEATHER AND/OR OBSTRUCTIONS TO VISIBILITY

IDZ012-014-241700-
SOUTHWEST IDAHO


CITY           SKY/WX    TMP DP  RH WIND       PRES   REMARKS
BOISE          SUNNY     62  52  69 W3        29.95S
CALDWELL       SUNNY     64  45  48 W7        29.96F
MOUNTAIN HOME  MOSUNNY   63  48  59 E5        29.95S
$$

IDZ016-017-241700-
SOUTHCENTRAL IDAHO


CITY           SKY/WX    TMP DP  RH WIND       PRES   REMARKS
BURLEY         MOSUNNY   56  50  80 CALM      29.97S
JEROME         MOSUNNY   57  50  77 SE6       29.98S
TWIN FALLS     CLOUDY    59  48  67 W5        29.96S
$$

IDZ019>023-241700-
SOUTHEAST IDAHO


CITY           SKY/WX    TMP DP  RH WIND       PRES   REMARKS
IDAHO FALLS    MOSUNNY   52  47  83 NW6       29.98F
POCATELLO      PTSUNNY   54  49  83 NW5       29.99F
REXBURG        CLOUDY    57  43  59 N6        29.96F
$$

IDZ006-010-011-018-031-032-241700-
CENTRAL IDAHO MOUNTAINS


CITY           SKY/WX    TMP DP  RH WIND       PRES   REMARKS
MCCALL         SUNNY     56  41  57 SW6       29.99F
HAILEY         MOSUNNY   54  46  76 SE7       30.00F
STANLEY          N/A     53  40  61 N7        30.04F
SALMON         CLOUDY    55  45  67 CALM      30.01F
CHALLIS        SUNNY     59  39  47 NE7       30.00F
$$

IDZ002-004-006-007-026-241700-
NORTHERN IDAHO


CITY           SKY/WX    TMP DP  RH WIND       PRES   REMARKS
LEWISTON       SUNNY     62  55  77 CALM      30.00S
LOWELL           N/A     57  49  74 CALM      30.01F
COEUR D`ALENE  SUNNY     64  52  63 CALM      29.99F
MULLAN PASS    SUNNY     54  36  50 CALM      30.09F
$$


USA.gov is the U.S. government's official web portal to all federal, state and local government web resources and services.